Regional Weather Roundup
Issued by NWS State College, PA

Home | Current Version | Previous Version | Graphics & Text | Print | Product List | Glossary On
Versions: 1 2 3 4 5 6 7 8 9 10 11 12 13 14 15 16 17 18 19 20 21 22 23 24 25 26 27 28 29 30 31 32 33 34 35 36 37 38 39 40 41 42 43 44 45 46 47 48 49 50
000
ASUS41 KCTP 242203
RWRCTP

REGIONAL WEATHER ROUNDUP
NATIONAL WEATHER SERVICE STATE COLLEGE PA
600 PM EDT FRI APR 24 2015

Note: "fair" indicates few or no clouds below 12,000 feet with no
significant weather and/or obstructions to visibility.

* = STATION THAT DOES NOT REPORT PRECIPITATION /E.G. RAIN...SNOW...ETC/
    THUNDER OR FOG.

PAZ002>004-007>009-013>016-020>023-029>032-242300-
WESTERN PENNSYLVANIA

CITY           SKY/WX    TMP DP  RH WIND       PRES   REMARKS
ERIE           SUNNY     41  18  39 W10G20    30.04F
MEADVILLE      SUNNY     43  17  35 W12       30.01S
FRANKLIN*      SUNNY     45  16  31 NW13G18   30.01S
NEW CASTLE     FAIR      51  18  27 W12       30.02S
BEAVER COUNTY  NOT AVBL
BUTLER*        SUNNY     52  19  28 NW12G17   30.00S
PITTSBURGH INT MOSUNNY   55  20  25 W20G25    29.98S
PITTSBURGH     SUNNY     54  14  20 NW14G21   29.97S
INDIANA*       SUNNY     52  19  28 NW13G21   29.99S
LATROBE        SUNNY     54  19  26 NW17G29   29.98F
WASHINGTON CO* SUNNY     55  21  26 W16       30.01S
$$

PAZ004>006-010>012-017>019-024>028-033>037-041-042-045-046-049>053-242300-
CENTRAL PENNSYLVANIA

CITY           SKY/WX    TMP DP  RH WIND       PRES   REMARKS
BRADFORD       SUNNY     39  18  42 NW16G22   29.93R
DUBOIS         SUNNY     48  12  23 NW18G30   29.93R
CLEARFIELD     SUNNY     49  12  22 NW17G26   29.93R
JOHNSTOWN      SUNNY     48  18  30 W18G29    29.91S
ALTOONA        SUNNY     51  15  23 W25G37    29.91S
STATE COLLEGE  MOSUNNY   50  16  25 W14G24    29.91R
WILLIAMSPORT   SUNNY     52   8  17 NW16G24   29.88R
SELINSGROVE    SUNNY     54  16  22 W15G23    29.89R
FT INDIANTOWN  SUNNY     54  15  21 NW16G32   29.87R
CAPITAL CITY   SUNNY     56  15  20 NW18G30   29.89S
HARRISBURG     MOSUNNY   56  19  23 NW28G35   29.88S
YORK           SUNNY     55  20  25 W17G26    29.89S
$$

PAZ038>040-043-044-047-048-054-055-060>062-067>071-242300-
EASTERN PENNSYLVANIA

CITY           SKY/WX    TMP DP  RH WIND       PRES   REMARKS
SCRANTON       SUNNY     46  20  35 N20G25    29.88R
MOUNT POCONO   SUNNY     41  18  39 N14G26    29.82R
ALLENTOWN      SUNNY     54  13  19 NW18G25   29.84S
QUAKERTOWN*    PTCLDY    54  16  22 NW13      29.85S
READING        SUNNY     54  16  22 NW21G30   29.86R
LANCASTER      MOSUNNY   53  19  26 NW22G35   29.87S
COATESVILLE    CLEAR     52  18  25 NW21G29   29.88R
POTTSTOWN      MOSUNNY   54  16  22 W14G22    29.86F
BLUE BELL      SUNNY     54  19  26 NW9G16    29.85S
DOYLESTOWN     SUNNY     53  13  20 NW13G24   29.83S
WILLOW GROVE   NOT AVBL
NORTH PHILA    MOSUNNY   54  13  19 W17G25    29.87S
PHILADELPHIA   MOSUNNY   56  14  19 NW18G29   29.87S
$$



USA.gov is the U.S. government's official web portal to all federal, state and local government web resources and services.